| time (UTC) | temp C | wind direction | speed KPH | gust KPH | rain 1hr cm | rain 24hr cm | rain mn cm | humidity % | barometer mb |
| 20260904060521 | 21 | 0.0 | 0.0 | 0.00 | 0.00 | 0.00 | 90 | 1010.4 | |
| 20260904055521 | 21 | 0.0 | 1.6 | 0.00 | 0.00 | 0.00 | 90 | 1010.5 | |
| 20260904054521 | 21 | 0.0 | 0.0 | 0.00 | 0.00 | 0.00 | 90 | 1010.4 | |
| 20260904053521 | 21 | 0.0 | 0.0 | 0.00 | 0.00 | 0.00 | 90 | 1010.5 | |
| 20260904052524 | 21 | 0.0 | 3.2 | 0.00 | 0.00 | 0.00 | 90 | 1010.6 | |
| 20260904051522 | 21 | 158 | 1.6 | 4.8 | 0.00 | 0.00 | 0.00 | 89 | 1010.7 |
| 20260904050521 | 21 | 180 | 1.6 | 3.2 | 0.00 | 0.00 | 0.00 | 89 | 1010.7 |
| 20260904045521 | 21 | 158 | 3.2 | 6.4 | 0.00 | 0.00 | 0.00 | 89 | 1010.8 |
| 20260904044521 | 21 | 180 | 3.2 | 6.4 | 0.00 | 0.00 | 0.00 | 89 | 1010.7 |
| 20260904043521 | 21 | 180 | 4.8 | 8.0 | 0.00 | 0.00 | 0.00 | 88 | 1010.7 |
| 20260904042521 | 21 | 180 | 1.6 | 6.4 | 0.00 | 0.00 | 0.00 | 88 | 1010.7 |
| 20260904041541 | 21 | 0.0 | 3.2 | 0.00 | 0.00 | 0.00 | 87 | 1010.6 | |
| 20260904040541 | 21 | 0.0 | 0.0 | 0.00 | 0.00 | 0.00 | 87 | 1010.4 | |
| 20260904035521 | 21 | 0.0 | 3.2 | 0.00 | 0.00 | 0.00 | 87 | 1010.6 | |
| 20260904034521 | 21 | 158 | 1.6 | 3.2 | 0.00 | 0.00 | 0.00 | 86 | 1010.5 |
| 20260904033521 | 22 | 203 | 1.6 | 3.2 | 0.00 | 0.00 | 0.00 | 86 | 1010.5 |
| 20260904032521 | 22 | 180 | 3.2 | 6.4 | 0.00 | 0.00 | 0.00 | 85 | 1010.4 |
| 20260904031541 | 22 | 180 | 1.6 | 6.4 | 0.00 | 0.00 | 0.00 | 84 | 1010.6 |
| 20260904030522 | 22 | 0.0 | 3.2 | 0.00 | 0.00 | 0.00 | 84 | 1010.7 | |
| 20260904025521 | 22 | 180 | 1.6 | 4.8 | 0.00 | 0.00 | 0.00 | 83 | 1010.7 |
| 20260904024521 | 22 | 203 | 4.8 | 8.0 | 0.00 | 0.00 | 0.00 | 84 | 1010.7 |
| 20260904023521 | 22 | 180 | 3.2 | 4.8 | 0.00 | 0.05 | 0.00 | 83 | 1010.7 |
| 20260904022521 | 22 | 158 | 3.2 | 4.8 | 0.00 | 0.05 | 0.00 | 81 | 1010.9 |
| 20260904021521 | 23 | 158 | 3.2 | 4.8 | 0.00 | 0.08 | 0.00 | 79 | 1010.6 |
| 20260904020521 | 23 | 0.0 | 1.6 | 0.00 | 0.08 | 0.00 | 78 | 1010.8 | |
| 20260904015521 | 23 | 180 | 1.6 | 3.2 | 0.00 | 0.08 | 0.00 | 77 | 1010.9 |
| 20260904014521 | 23 | 0.0 | 1.6 | 0.00 | 0.13 | 0.00 | 75 | 1010.9 | |
| 20260904013521 | 24 | 0.0 | 3.2 | 0.00 | 0.13 | 0.00 | 73 | 1011.0 | |
| 20260904012522 | 25 | 0.0 | 1.6 | 0.00 | 0.13 | 0.00 | 70 | 1010.5 | |
| 20260904011541 | 25 | 23 | 1.6 | 3.2 | 0.00 | 0.15 | 0.00 | 69 | 1010.7 |
| 20260904010521 | 25 | 0.0 | 0.0 | 0.00 | 0.23 | 0.00 | 69 | 1010.9 | |
| 20260904005520 | 25 | 0.0 | 0.0 | 0.00 | 0.28 | 0.00 | 68 | 1010.7 | |
| 20260904004521 | 25 | 0.0 | 3.2 | 0.00 | 0.30 | 0.00 | 67 | 1010.9 | |
| 20260904003521 | 25 | 0 | 1.6 | 3.2 | 0.00 | 0.30 | 0.00 | 66 | 1010.8 |
| 20260904002521 | 25 | 0 | 1.6 | 3.2 | 0.00 | 0.30 | 0.00 | 66 | 1010.8 |
| 20260904001540 | 25 | 0 | 3.2 | 4.8 | 0.00 | 0.30 | 0.00 | 66 | 1010.6 |
| 20260904000520 | 25 | 338 | 1.6 | 4.8 | 0.00 | 0.30 | 0.00 | 67 | 1010.6 |
| 20260903235520 | 26 | 0.0 | 3.2 | 0.00 | 0.30 | 0.00 | 68 | 1010.6 | |
| 20260903234541 | 26 | 338 | 3.2 | 6.4 | 0.00 | 0.30 | 0.00 | 65 | 1010.4 |
| 20260903233520 | 26 | 338 | 3.2 | 4.8 | 0.00 | 0.30 | 0.00 | 65 | 1010.6 |
| 20260903232520 | 26 | 338 | 4.8 | 9.7 | 0.00 | 0.30 | 0.00 | 66 | 1010.5 |
| 20260903231520 | 26 | 338 | 8.0 | 9.7 | 0.00 | 0.30 | 0.00 | 66 | 1010.5 |
| 20260903230520 | 26 | 23 | 8.0 | 11.3 | 0.00 | 0.30 | 0.00 | 67 | 1010.1 |
| 20260903225520 | 26 | 338 | 6.4 | 9.7 | 0.00 | 0.30 | 0.00 | 67 | 1010.2 |
| 20260903224520 | 26 | 23 | 6.4 | 11.3 | 0.00 | 0.30 | 0.00 | 67 | 1010.1 |
| 20260903223520 | 27 | 23 | 9.7 | 14.5 | 0.00 | 0.30 | 0.00 | 66 | 1010.0 |
| 20260903222520 | 27 | 23 | 4.8 | 8.0 | 0.00 | 0.30 | 0.00 | 62 | 1009.8 |
| 20260903221520 | 27 | 0 | 1.6 | 4.8 | 0.00 | 0.30 | 0.00 | 60 | 1010.0 |
| 20260903220520 | 28 | 23 | 4.8 | 6.4 | 0.00 | 0.30 | 0.00 | 60 | 1009.9 |
| 20260903215520 | 28 | 338 | 3.2 | 6.4 | 0.00 | 0.30 | 0.00 | 59 | 1009.9 |
| 20260903214520 | 28 | 270 | 3.2 | 6.4 | 0.00 | 0.30 | 0.00 | 61 | 1009.9 |
| 20260903213520 | 28 | 338 | 4.8 | 9.7 | 0.00 | 0.30 | 0.00 | 60 | 1010.0 |
| 20260903212540 | 28 | 338 | 4.8 | 9.7 | 0.00 | 0.30 | 0.00 | 59 | 1009.9 |
| 20260903211521 | 28 | 293 | 4.8 | 11.3 | 0.00 | 0.30 | 0.00 | 58 | 1009.9 |
| 20260903210520 | 29 | 315 | 4.8 | 8.0 | 0.00 | 0.30 | 0.00 | 57 | 1010.1 |
| 20260903205520 | 28 | 248 | 4.8 | 9.7 | 0.00 | 0.30 | 0.00 | 59 | 1010.2 |
| 20260903204520 | 28 | 338 | 3.2 | 8.0 | 0.00 | 0.30 | 0.00 | 58 | 1010.3 |
| 20260903203520 | 28 | 270 | 4.8 | 11.3 | 0.00 | 0.30 | 0.00 | 58 | 1010.4 |
| 20260903202520 | 28 | 293 | 3.2 | 6.4 | 0.00 | 0.30 | 0.00 | 58 | 1010.4 |
| 20260903201520 | 28 | 338 | 4.8 | 9.7 | 0.00 | 0.30 | 0.00 | 54 | 1010.4 |
| 20260903200520 | 30 | 293 | 3.2 | 6.4 | 0.00 | 0.30 | 0.00 | 54 | 1010.4 |
| 20260903195542 | 30 | 293 | 6.4 | 16.1 | 0.00 | 0.30 | 0.00 | 55 | 1010.3 |
| 20260903194522 | 29 | 293 | 6.4 | 16.1 | 0.00 | 0.30 | 0.00 | 55 | 1010.4 |
| 20260903193542 | 28 | 270 | 6.4 | 16.1 | 0.00 | 0.30 | 0.00 | 57 | 1010.6 |
| 20260903192521 | 29 | 315 | 6.4 | 11.3 | 0.00 | 0.30 | 0.00 | 56 | 1010.7 |
| 20260903191521 | 29 | 0 | 3.2 | 8.0 | 0.00 | 0.30 | 0.00 | 56 | 1010.7 |
| 20260903190521 | 28 | 293 | 6.4 | 16.1 | 0.00 | 0.30 | 0.00 | 55 | 1010.8 |
| 20260903185521 | 28 | 0 | 4.8 | 8.0 | 0.00 | 0.30 | 0.00 | 56 | 1010.9 |
| 20260903184521 | 28 | 293 | 4.8 | 9.7 | 0.00 | 0.30 | 0.00 | 55 | 1011.0 |
| 20260903183521 | 28 | 338 | 3.2 | 8.0 | 0.00 | 0.30 | 0.00 | 56 | 1011.0 |
| 20260903182521 | 28 | 23 | 4.8 | 11.3 | 0.00 | 0.30 | 0.00 | 57 | 1010.9 |
| 20260903181521 | 29 | 338 | 4.8 | 16.1 | 0.00 | 0.30 | 0.00 | 56 | 1011.0 |
| 20260903180521 | 28 | 338 | 6.4 | 12.9 | 0.00 | 0.30 | 0.00 | 57 | 1011.0 |
| 20260903175521 | 28 | 315 | 4.8 | 9.7 | 0.00 | 0.30 | 0.00 | 55 | 1011.1 |
| 20260903174521 | 28 | 23 | 6.4 | 19.3 | 0.00 | 0.30 | 0.00 | 56 | 1011.2 |
| 20260903173521 | 27 | 338 | 3.2 | 6.4 | 0.00 | 0.30 | 0.00 | 61 | 1011.2 |
| 20260903172522 | 27 | 248 | 4.8 | 9.7 | 0.00 | 0.30 | 0.00 | 63 | 1011.2 |
| 20260903171521 | 27 | 270 | 6.4 | 9.7 | 0.00 | 0.30 | 0.00 | 63 | 1011.3 |
| 20260903170542 | 27 | 0 | 3.2 | 8.0 | 0.00 | 0.30 | 0.00 | 64 | 1011.2 |
| 20260903165521 | 27 | 270 | 4.8 | 9.7 | 0.00 | 0.30 | 0.00 | 62 | 1011.3 |
| 20260903164521 | 27 | 248 | 4.8 | 9.7 | 0.00 | 0.30 | 0.00 | 66 | 1011.5 |
| 20260903163521 | 26 | 338 | 6.4 | 11.3 | 0.00 | 0.30 | 0.00 | 65 | 1011.6 |
| 20260903162521 | 26 | 293 | 6.4 | 14.5 | 0.00 | 0.30 | 0.00 | 67 | 1011.7 |
| 20260903161601 | 26 | 293 | 6.4 | 12.9 | 0.00 | 0.30 | 0.00 | 70 | 1011.7 |
| 20260903160521 | 26 | 293 | 6.4 | 11.3 | 0.00 | 0.30 | 0.00 | 69 | 1011.7 |
| 20260903155541 | 26 | 248 | 4.8 | 9.7 | 0.00 | 0.30 | 0.00 | 73 | 1011.8 |
| 20260903154520 | 26 | 293 | 6.4 | 16.1 | 0.00 | 0.30 | 0.00 | 74 | 1011.8 |
| 20260903153521 | 25 | 293 | 6.4 | 11.3 | 0.00 | 0.33 | 0.00 | 76 | 1011.9 |
| 20260903152521 | 25 | 293 | 6.4 | 11.3 | 0.00 | 0.48 | 0.00 | 77 | 1012.0 |
| 20260903151520 | 25 | 270 | 8.0 | 16.1 | 0.00 | 0.97 | 0.00 | 79 | 1012.0 |
| 20260903150521 | 24 | 293 | 8.0 | 19.3 | 0.00 | 1.78 | 0.00 | 80 | 1012.2 |
| 20260903145520 | 24 | 248 | 4.8 | 8.0 | 0.00 | 3.07 | 0.00 | 82 | 1012.2 |
| 20260903144523 | 23 | 270 | 4.8 | 9.7 | 0.00 | 3.23 | 0.00 | 83 | 1012.1 |
| 20260903143520 | 23 | 270 | 3.2 | 6.4 | 0.00 | 3.45 | 0.00 | 84 | 1012.1 |
| 20260903142520 | 23 | 248 | 4.8 | 9.7 | 0.00 | 3.94 | 0.00 | 84 | 1012.0 |
| 20260903141520 | 22 | 225 | 6.4 | 16.1 | 0.00 | 4.60 | 0.00 | 85 | 1012.0 |
| 20260903140520 | 22 | 225 | 3.2 | 11.3 | 0.00 | 4.88 | 0.00 | 85 | 1012.1 |
| 20260903135520 | 22 | 225 | 4.8 | 11.3 | 0.00 | 4.98 | 0.00 | 85 | 1011.8 |
| 20260903134520 | 22 | 225 | 4.8 | 9.7 | 0.00 | 5.03 | 0.00 | 85 | 1011.9 |
| 20260903133522 | 22 | 203 | 3.2 | 6.4 | 0.00 | 5.08 | 0.00 | 85 | 1012.0 |
| 20260903132520 | 22 | 225 | 3.2 | 9.7 | 0.00 | 5.08 | 0.00 | 84 | 1011.9 |
| 20260903131520 | 22 | 225 | 4.8 | 6.4 | 0.00 | 5.08 | 0.00 | 84 | 1011.9 |
| 20260903130520 | 22 | 225 | 6.4 | 11.3 | 0.00 | 5.08 | 0.00 | 83 | 1011.9 |
| 20260903125520 | 22 | 225 | 4.8 | 9.7 | 0.00 | 5.08 | 0.00 | 83 | 1011.8 |
| 20260903124521 | 22 | 225 | 3.2 | 8.0 | 0.00 | 5.08 | 0.00 | 83 | 1011.9 |
| 20260903123520 | 22 | 203 | 3.2 | 11.3 | 0.00 | 5.08 | 0.00 | 83 | 1011.8 |
| 20260903122520 | 22 | 248 | 3.2 | 8.0 | 0.00 | 5.08 | 0.00 | 84 | 1011.7 |
| 20260903121520 | 22 | 225 | 1.6 | 4.8 | 0.00 | 5.08 | 0.00 | 84 | 1011.8 |
| 20260903120540 | 22 | 158 | 3.2 | 6.4 | 0.00 | 5.08 | 0.00 | 84 | 1011.6 |
| 20260903115524 | 22 | 180 | 1.6 | 4.8 | 0.00 | 5.08 | 0.00 | 85 | 1011.6 |
| 20260903114520 | 21 | 248 | 3.2 | 4.8 | 0.00 | 5.08 | 0.00 | 86 | 1011.6 |
| 20260903113520 | 21 | 158 | 4.8 | 11.3 | 0.00 | 5.08 | 0.00 | 86 | 1011.5 |
| 20260903112520 | 21 | 135 | 1.6 | 3.2 | 0.00 | 5.08 | 0.00 | 86 | 1011.3 |
| 20260903111520 | 21 | 158 | 3.2 | 6.4 | 0.00 | 5.08 | 0.00 | 87 | 1011.1 |
| 20260903110520 | 21 | 158 | 1.6 | 3.2 | 0.00 | 5.08 | 0.00 | 87 | 1011.1 |
| 20260903105520 | 21 | 0.0 | 3.2 | 0.00 | 5.08 | 0.00 | 87 | 1010.9 | |
| 20260903104519 | 21 | 0.0 | 3.2 | 0.00 | 5.08 | 0.00 | 87 | 1011.0 | |
| 20260903103519 | 21 | 158 | 3.2 | 6.4 | 0.00 | 5.08 | 0.00 | 88 | 1011.1 |
| 20260903102522 | 21 | 135 | 1.6 | 4.8 | 0.00 | 5.08 | 0.00 | 88 | 1011.0 |
| 20260903101522 | 21 | 158 | 1.6 | 4.8 | 0.00 | 5.08 | 0.00 | 88 | 1010.9 |
| 20260903100541 | 21 | 135 | 1.6 | 3.2 | 0.00 | 5.08 | 0.00 | 88 | 1010.8 |
| 20260903095521 | 21 | 158 | 1.6 | 3.2 | 0.00 | 5.08 | 0.00 | 88 | 1010.9 |
| 20260903094522 | 21 | 158 | 1.6 | 4.8 | 0.00 | 5.08 | 0.00 | 88 | 1010.9 |
| 20260903093521 | 21 | 158 | 3.2 | 6.4 | 0.00 | 5.08 | 0.00 | 88 | 1011.0 |
| 20260903092521 | 21 | 0.0 | 0.0 | 0.00 | 5.08 | 0.00 | 88 | 1011.0 | |
| 20260903091522 | 21 | 0.0 | 3.2 | 0.00 | 5.08 | 0.00 | 88 | 1010.9 | |
| 20260903090521 | 21 | 0.0 | 1.6 | 0.00 | 5.08 | 0.00 | 88 | 1010.9 | |
| 20260903085521 | 21 | 158 | 1.6 | 6.4 | 0.00 | 5.08 | 0.00 | 88 | 1010.7 |
| 20260903084521 | 21 | 0.0 | 4.8 | 0.00 | 5.08 | 0.00 | 88 | 1010.8 | |
| 20260903083521 | 21 | 135 | 1.6 | 4.8 | 0.00 | 5.08 | 0.00 | 87 | 1010.8 |
| 20260903082521 | 21 | 135 | 1.6 | 4.8 | 0.00 | 5.08 | 0.00 | 86 | 1010.9 |
| 20260903081541 | 21 | 180 | 4.8 | 11.3 | 0.00 | 5.08 | 0.00 | 86 | 1010.7 |
| 20260903080521 | 21 | 0.0 | 1.6 | 0.00 | 5.08 | 0.00 | 87 | 1010.9 | |
| 20260903075601 | 21 | 0.0 | 4.8 | 0.00 | 5.08 | 0.00 | 87 | 1011.0 | |
| 20260903074521 | 21 | 0.0 | 1.6 | 0.00 | 5.08 | 0.00 | 87 | 1010.9 | |
| 20260903073521 | 21 | 158 | 1.6 | 3.2 | 0.00 | 5.08 | 0.00 | 88 | 1011.1 |
| 20260903072541 | 21 | 225 | 3.2 | 6.4 | 0.00 | 5.08 | 0.00 | 88 | 1011.2 |
| 20260903071521 | 21 | 158 | 1.6 | 4.8 | 0.00 | 5.08 | 0.00 | 89 | 1011.2 |
| 20260903070520 | 20 | 158 | 1.6 | 4.8 | 0.00 | 5.08 | 0.00 | 89 | 1011.3 |
| 20260903065520 | 20 | 135 | 1.6 | 3.2 | 0.00 | 5.08 | 0.00 | 90 | 1011.3 |
| 20260903064521 | 20 | 180 | 4.8 | 8.0 | 0.00 | 5.08 | 0.00 | 90 | 1011.1 |
| 20260903063541 | 20 | 158 | 1.6 | 4.8 | 0.00 | 5.08 | 0.00 | 90 | 1011.1 |
| 20260903062522 | 20 | 0.0 | 0.0 | 0.00 | 5.08 | 0.00 | 90 | 1011.0 | |
| 20260903061520 | 20 | 0.0 | 3.2 | 0.00 | 5.08 | 0.00 | 90 | 1011.0 |